Jerez de la Frontera, Spain

5:05 PM CEST on September 21, 2017 (GMT +0200)
Jerez

Weather History for LEJR - January, 2013

Change the Weather History Date:

Saturday, January 5, 2013

  Actual Average Record
Temperature  
Mean Temperature 51 °F -  
Max Temperature 65 °F 59 °F 69 °F (2012)
Min Temperature 37 °F 40 °F 30 °F (2006)
Degree Days  
Heating Degree Days 14    
Growing Degree Days 1 (Base 50)    
Moisture  
Dew Point 45 °F    
Average Humidity 85    
Maximum Humidity 100    
Minimum Humidity 59    
Precipitation  
Precipitation 0.00 in 0.13 in - ()
Sea Level Pressure  
Sea Level Pressure 30.52 in    
Wind  
Wind Speed 1 mph ()    
Max Wind Speed 5 mph    
Max Gust Speed -    
Visibility 10.5 miles    
Events      
Averages and records for this station are not official NWS values.
T = Trace of Precipitation, MM = Missing Value Source: Averaged Metar Reports

Daily Weather History Graph

Daily Weather History Graph

Search for Another Location

Airport or City:

Trip Planner

Search our weather history database for the weather conditions in past years. The results will help you decide how hot, cold, wet, or windy it might be!

Date:

Astronomy

Jan. 05, 2013 Rise Set
Actual Time 8:37 AM CET 6:22 PM CET
Civil Twilight 8:08 AM CET 6:51 PM CET
Nautical Twilight 7:36 AM CET 7:23 PM CET
Astronomical Twilight 7:05 AM CET 7:54 PM CET
Moon 1:34 AM CET (1/5) 12:59 PM CET (1/5)
Length of Visible Light 10h 42m
Length of Day
9h 45m
Waning Gibbous, 47% of the Moon is Illuminated
Jan 5
Waning Gibbous
Jan 11
New
Jan 19
First Quarter
Jan 27
Full
Feb 3
Last Quarter

Hourly Weather History & Observations

Time (CET) Temp. Windchill Dew Point Humidity Pressure Visibility Wind Dir Wind Speed Gust Speed Precip Events Conditions
1:00 AM 43 °F - 41 °F 92% 30.56 in - Calm Calm - -  
5:00 AM 41.0 °F - 41.0 °F 100% 30.54 in - Calm Calm - N/A   Clear
5:30 AM 41.0 °F - 39.2 °F 93% 30.54 in - Calm Calm - N/A   Clear
6:00 AM 41.0 °F 38.0 °F 39.2 °F 93% 30.54 in - North 4.6 mph - N/A   Clear
6:30 AM 39.2 °F 35.9 °F 39.2 °F 100% 30.54 in - NNE 4.6 mph - N/A   Clear
7:00 AM 39 °F - 38 °F 97% 30.55 in 19 mi NNW 2.3 mph - -  
7:00 AM 39.2 °F - 39.2 °F 100% 30.54 in - Variable 1.2 mph - N/A   Clear
8:00 AM 37.4 °F - 37.4 °F 100% 30.54 in - Calm Calm - N/A   Clear
8:30 AM 39.2 °F - 37.4 °F 93% 30.54 in - Calm Calm - N/A   Clear
9:00 AM 37.4 °F - 37.4 °F 100% 30.54 in - Variable 2.3 mph - N/A   Clear
9:30 AM 41.0 °F - 41.0 °F 100% 30.57 in - Variable 2.3 mph - N/A   Clear
10:00 AM 42.8 °F - 42.8 °F 100% 30.57 in - Calm Calm - N/A   Clear
10:30 AM 44.6 °F 43.1 °F 42.8 °F 93% 30.57 in - NNE 3.5 mph - N/A   Clear
11:00 AM 48.2 °F - 44.6 °F 87% 30.57 in - Calm Calm - N/A   Clear
11:30 AM 51.8 °F - 44.6 °F 76% 30.57 in - Variable 1.2 mph - N/A   Clear
12:00 PM 55.4 °F - 46.4 °F 72% 30.57 in - Variable 1.2 mph - N/A   Clear
12:30 PM 57.2 °F - 48.2 °F 72% 30.57 in - Variable 1.2 mph - N/A   Clear
1:00 PM 59.0 °F - 46.4 °F 63% 30.54 in - Variable 1.2 mph - N/A   Clear
1:30 PM 60.8 °F - 48.2 °F 63% 30.54 in - Variable 1.2 mph - N/A   Clear
2:00 PM 62.6 °F - 48.2 °F 59% 30.51 in - Calm Calm - N/A   Clear
2:30 PM 64.4 °F - 50.0 °F 59% 30.51 in 6.2 mi Calm Calm - N/A   Partly Cloudy
3:00 PM 62.6 °F - 50.0 °F 63% 30.51 in 6.2 mi Variable 2.3 mph - N/A   Partly Cloudy
3:30 PM 62.6 °F - 51.8 °F 68% 30.48 in 6.2 mi Variable 2.3 mph - N/A   Partly Cloudy
4:00 PM 64.4 °F - 51.8 °F 64% 30.48 in 6.2 mi Variable 2.3 mph - N/A   Partly Cloudy
4:30 PM 64.4 °F - 51.8 °F 64% 30.48 in - Variable 2.3 mph - N/A   Clear
5:00 PM 62.6 °F - 51.8 °F 68% 30.48 in - NNW 3.5 mph - N/A   Clear
6:30 PM 57.2 °F - 51.8 °F 82% 30.48 in - Variable 1.2 mph - N/A   Clear
7:00 PM 55 °F - 51 °F 80% 30.50 in 19 mi NW 2.3 mph - -  
7:00 PM 53.6 °F - 50.0 °F 88% 30.48 in - Variable 2.3 mph - N/A   Clear
7:30 PM 53.6 °F - 48.2 °F 82% 30.48 in - Variable 2.3 mph - N/A   Clear
8:00 PM 50.0 °F - 48.2 °F 94% 30.48 in - Calm Calm - N/A   Clear
9:00 PM 50.0 °F - 48.2 °F 94% 30.48 in - Calm Calm - N/A   Clear
9:30 PM 48.2 °F - 46.4 °F 93% 30.48 in - Calm Calm - N/A   Clear
10:00 PM 48.2 °F - 46.4 °F 93% 30.48 in - Calm Calm - N/A   Clear
10:30 PM 46.4 °F - 46.4 °F 100% 30.48 in - Calm Calm - N/A   Clear
11:00 PM 46.4 °F - 46.4 °F 100% 30.48 in - Calm Calm - N/A   Clear